Starlink 5145

operational
NORAD ID: 54008 Int'l Des: 2022-125 Owner: SPXS Country: US Constellation: starlink
LEOCIRCULAR

About Starlink 5145

Description loading...

Live Position

Loading 3D Globe...

Upcoming Passes

Altitude History

Altitude vs Time

uPlot chart will show altitude changes over time

Two-Line Element Set

1 54008U 22125AW 26061.63937027 -.00002339 00000-0 -12890-3 0 9993
2 54008 53.2159 235.4132 0001167 83.8913 276.2212 15.08841650188547
Epoch: Mar 2, 2026 • Age: 29 hours

Current Status

Altitude 540.3 km
Velocity 7.59 km/s
Sub-Earth Point 3.40°N, 176.8°E
Launch Date Oct 5, 2022
Age 3.4 years
Type internet

Technical Details

Classification Payload
Mass 305.00 kg
Dry Mass 290.00 kg
Total Mass 305.00 kg
Length 0.20 m
Diameter 2.80 m
Span 9.00 m
Shape Box + pan
Manufacturer SPXS
Bus Type Starlink
Phase Status In Orbit
Owner/State SPXS/US

Large Constellations

Loading constellations...